DW4221 Weather Reports


time (UTC)temp
F
wind
direction
speed
knots
gust
knots
rain 1hr
in
rain 24hr
in
rain mn
in
humidity
%
barometer
mb
20260831154624 68 200 1.7 7.0 0.00 0.41 0.41 98 1011.3
20260831153118 68 232 1.7 3.5 0.00 0.41 0.41 99 1010.9
20260831151613 68 0 0.0 4.3 0.00 0.41 0.41 99 1010.8
20260831150106 67 261 0.9 4.3 0.00 0.41 0.41 99 1010.6
20260831144605 67 167 0.0 3.5 0.00 0.41 0.41 99 1010.6
20260831143109 67 0 0.0 1.7 0.00 0.41 0.41 99 1010.3
20260831141605 67 0 0.0 2.6 0.00 0.41 0.41 99 1010.1
20260831140104 67 0 0.0 2.6 0.00 0.41 0.41 99 1010.2
20260831134614 66 0 0.0 0.0 0.00 0.41 0.41 99 1010.2
20260831133107 66 221 0.0 3.5 0.00 0.41 0.41 99 1010.1
20260831131601 66 0 0.9 3.5 0.00 0.41 0.41 99 1010.2
20260831130059 66 0 0.0 4.3 0.00 0.41 0.41 99 1009.8
20260831124608 65 182 0.0 1.7 0.00 0.41 0.41 99 1009.9
20260831123105 65 0 0.0 0.9 0.00 0.41 0.41 99 1010.0
20260831121632 65 0 0.0 2.6 0.00 0.41 0.41 99 1009.9
20260831120059 64 0 0.0 0.0 0.00 0.41 0.41 99 1009.9
20260831114605 64 0 0.0 0.0 0.00 0.41 0.41 99 1010.0
20260831113109 64 0 0.0 0.0 0.00 0.41 0.41 99 1009.9
20260831111557 64 0 0.0 3.5 0.02 0.41 0.41 98 1009.7
20260831110107 64 140 0.0 3.5 0.05 0.41 0.41 98 1009.8
20260831104605 64 194 1.7 7.8 0.09 0.41 0.41 98 1009.7
20260831103111 64 140 1.7 7.0 0.17 0.41 0.41 98 1009.8
20260831101610 64 89 1.7 5.2 0.17 0.39 0.39 98 1009.9
20260831100110 64 82 0.0 3.5 0.19 0.36 0.36 98 1010.3
20260831094608 64 0 0.9 4.3 0.15 0.32 0.32 98 1010.4
20260831093152 64 189 1.7 6.1 0.07 0.24 0.24 98 1010.1
20260831091606 64 121 1.7 6.1 0.04 0.21 0.21 98 1009.8
20260831090108 64 184 0.9 5.2 0.00 0.17 0.17 98 1010.7
20260831084652 64 104 1.7 7.0 0.00 0.17 0.17 98 1009.9
20260831083107 64 76 1.7 7.8 0.00 0.17 0.17 98 1009.5
20260831081558 64 88 2.6 6.1 0.00 0.17 0.17 98 1009.6
20260831080117 64 109 1.7 5.2 0.00 0.17 0.17 98 1009.7
20260831074553 64 127 1.7 3.5 0.00 0.17 0.17 98 1010.0
20260831073057 64 0 0.9 3.5 0.02 0.17 0.17 98 1010.2
20260831071612 64 0 0.9 4.3 0.03 0.17 0.17 98 1010.3
20260831070056 63 101 0.9 5.2 0.07 0.17 0.17 98 1010.2
20260831064603 63 134 2.6 6.1 0.07 0.17 0.17 97 1010.4
20260831063108 63 106 0.9 5.2 0.09 0.15 0.15 97 1010.6
20260831061605 63 95 0.9 2.6 0.14 0.14 0.14 97 1011.5
20260831060122 63 0 0.0 1.7 0.10 0.10 0.10 97 1011.8
20260831054604 63 145 0.9 7.0 0.10 0.10 0.10 96 1011.1
20260831053102 63 92 0.9 6.1 0.06 0.06 0.06 95 1011.9
20260831051602 64 128 1.7 6.1 0.00 0.00 0.00 94 1012.4
20260831050118 64 117 2.6 8.7 0.00 0.00 0.00 94 1012.4
20260831044610 64 84 3.5 11.3 0.00 0.00 0.00 94 1012.4
20260831043105 64 109 3.5 8.7 0.00 0.00 0.00 94 1012.8
20260831041558 64 114 0.9 8.7 0.00 0.00 0.00 93 1013.0
20260831040054 64 0 2.6 9.6 0.00 0.00 0.00 93 1013.3
20260831034601 64 99 2.6 7.8 0.00 0.00 0.00 92 1013.7
20260831033104 65 109 1.7 10.4 0.00 0.00 0.00 91 1013.4
20260831031557 65 120 2.6 7.0 0.00 0.00 0.00 91 1013.6
20260831030056 65 100 2.6 7.8 0.00 0.00 0.00 91 1013.8
20260831024559 65 0 2.6 7.0 0.00 0.00 0.00 91 1013.9
20260831023105 65 0 0.9 6.1 0.00 0.00 0.00 91 1013.9
20260831021555 65 128 3.5 10.4 0.00 0.00 0.00 91 1013.7
20260831020056 65 117 0.9 7.0 0.00 0.00 0.00 91 1013.5
20260831014552 64 107 1.7 9.6 0.00 0.00 0.00 91 1013.0
20260831013058 65 92 2.6 8.7 0.00 0.00 0.00 91 1012.5
20260831011602 65 128 3.5 8.7 0.00 0.00 0.00 90 1012.2
20260831010105 65 111 2.6 8.7 0.00 0.00 0.00 89 1012.8
20260831004554 65 0 1.7 9.6 0.00 0.00 0.00 89 1013.0
20260831003101 66 119 1.7 9.6 0.00 0.00 0.00 89 1013.0
20260831001608 66 90 3.5 11.3 0.00 0.00 0.00 88 1013.6
20260831000056 66 165 4.3 10.4 0.00 0.00 0.00 88 1013.9
20260830234606 66 62 2.6 9.6 0.00 0.00 0.00 87 1014.1
20260830233106 66 78 2.6 8.7 0.00 0.00 0.00 86 1014.0
20260830231556 67 111 4.3 10.4 0.00 0.00 0.00 85 1014.3
20260830230128 67 74 3.5 8.7 0.00 0.00 0.00 85 1014.2
20260830224606 67 101 4.3 11.3 0.00 0.00 0.00 84 1014.1
20260830223055 68 113 4.3 10.4 0.00 0.00 0.00 83 1014.2
20260830221553 68 123 3.5 7.8 0.00 0.00 0.00 81 1014.1
20260830220107 69 142 3.5 8.7 0.00 0.00 0.00 81 1014.5
20260830214556 69 123 5.2 11.3 0.00 0.00 0.00 80 1014.4
20260830213100 70 62 3.5 9.6 0.00 0.00 0.00 79 1014.5
20260830211605 70 200 3.5 12.2 0.00 0.00 0.00 80 1014.7
20260830210109 70 198 1.7 11.3 0.00 0.00 0.00 81 1014.7
20260830204557 69 94 5.2 10.4 0.00 0.00 0.00 80 1014.7
20260830203100 70 152 5.2 13.0 0.00 0.00 0.00 80 1014.7
20260830201556 70 162 3.5 11.3 0.00 0.00 0.00 80 1014.8
20260830200106 69 89 3.5 11.3 0.00 0.00 0.00 81 1014.6
20260830194612 70 111 2.6 8.7 0.00 0.00 0.00 82 1014.9
20260830193100 69 186 4.3 12.2 0.00 0.00 0.00 81 1014.5
20260830191601 69 190 5.2 11.3 0.00 0.00 0.00 81 1014.7
20260830190057 70 169 4.3 10.4 0.00 0.00 0.00 81 1014.6
20260830184559 69 72 3.5 9.6 0.00 0.00 0.00 82 1014.7
20260830183057 69 108 4.3 9.6 0.00 0.00 0.00 83 1014.5
20260830181555 68 73 2.6 7.8 0.00 0.00 0.00 84 1014.5
20260830180108 67 53 1.7 9.6 0.00 0.00 0.00 86 1014.3
20260830174607 67 104 4.3 10.4 0.00 0.00 0.00 87 1014.6
20260830173107 67 15 4.3 10.4 0.00 0.00 0.00 86 1014.9
20260830171606 67 148 4.3 8.7 0.00 0.00 0.00 86 1015.0
20260830170056 67 140 3.5 9.6 0.00 0.00 0.00 86 1015.1
20260830164604 67 82 4.3 9.6 0.00 0.00 0.00 86 1015.1
20260830163100 68 140 2.6 7.8 0.00 0.00 0.00 86 1015.1
20260830161554 67 72 2.6 6.1 0.00 0.00 0.00 88 1015.3
20260830160115 67 188 0.0 7.8 0.00 0.00 0.00 88 1015.2